Location: Olmeneta
(45.2333°N, 10.0167°E)
Time: 16:26:51
(UTC+00:00)

USA 234 - Pass Details

Date: 03 March 2021
Orbit: 1102 x 1105 km, 123.0° (Epoch: 08 April)

Event Time Altitude Azimuth Distance (km) Brightness Sun altitude
Exits shadow 17:52:35 - 59° (ENE) 3,437 5.3 -8.3°
Reaches altitude 10° 17:53:58 10° 64° (ENE) 2,965 5.0 -8.5°
Maximum altitude 17:59:51 35° 129° (SE) 1,699 3.9 -9.6°
Drops below altitude 10° 18:05:43 10° 193° (SSW) 2,952 5.7 -10.6°
Sets 18:08:26 0° 202° (SSW) 3,907 6.4 -11.1°
